Regional Weather Roundup
Issued by NWS Upton, NY

Current Version | Previous Version | Text Only | Print | Product List | Glossary On
Versions: 1 2 3 4 5 6 7 8 9 10 11 12 13 14 15 16 17 18 19 20 21 22 23 24 25 26 27 28 29 30 31 32 33 34 35 36 37 38 39 40 41 42 43 44 45 46 47 48 49 50
000
ASUS41 KOKX 020004
RWROKX

REGIONAL WEATHER ROUNDUP
NATIONAL WEATHER SERVICE NEW YORK NY
800 PM EDT SAT AUG 01 2015

NOTE: "FAIR" INDICATES FEW OR NO CLOUDS BELOW 12,000 FEET WITH NO
SIGNIFICANT WEATHER AND/OR OBSTRUCTIONS TO VISIBILITY.

NYZ071-072-176-178-NJZ106-104-020100-
NEW YORK CITY METRO AREA


CITY           SKY/WX    TMP DP  RH WIND       PRES   REMARKS
CENTRAL PARK   CLEAR     84  55  36 W9        29.83R
LAGUARDIA APRT PTCLDY    84  56  38 NW14G20   29.79R
KENNEDY INTL   PTCLDY    86  54  33 W14G20    29.80R
NEWARK/LIBERTY PTCLDY    84  57  39 NW9       29.80R
BRNX BOT. GARD   N/A     82  55  39 W5        29.81R
TETERBORO      PTCLDY    82  55  39 W8        29.79R
$$

NYZ177-179-078>081-020100-
LONG ISLAND NEW YORK

CITY           SKY/WX    TMP DP  RH WIND       PRES   REMARKS
FARMINGDALE    CLEAR     84  57  39 NW7       29.80R
ISLIP          PTCLDY    81  58  45 NW6       29.78R
SHIRLEY        CLEAR     81  58  45 NW6       29.80R
WESTHAMPTON    PTCLDY    79  67  66 SW7       29.81R
MONTAUK POINT    N/A     79  68  69 SW6       29.80R
$$

NYZ052-065-067-020100-
HUDSON VALLEY

CITY           SKY/WX    TMP DP  RH WIND       PRES   REMARKS
WHITE PLAINS   PTCLDY    79  57  46 NW7       29.81R
NEWBURGH       PTCLDY    79  55  44 W14       29.82R
MONTGOMERY     CLEAR     77  57  50 SW5       29.81R
POUGHKEEPSIE   CLEAR     82  53  36 W7        29.79R
ALBANY         PTCLDY    76  54  46 NW8       29.80R
$$

NJZ001-105-106-008-010-013-015-019>022-104-020100-
NEW JERSEY

CITY           SKY/WX    TMP DP  RH WIND       PRES   REMARKS
NEWARK/LIBERTY PTCLDY    84  57  39 NW9       29.80R
TETERBORO      PTCLDY    82  55  39 W8        29.79R
CALDWELL       CLEAR     82  57  42 NW6       29.81R
MORRISTOWN     PTCLDY    82  59  44 NW8       29.80S
SOMERVILLE     MOCLDY    79  58  48 CALM      29.80R
SUSSEX         PTCLDY    76  60  57 CALM      29.83R
ANDOVER          N/A     67  65  93 CALM      29.85R
TRENTON        CLEAR     82  57  42 NW5       29.82R
MILLVILLE      CLEAR     80  64  58 SW3       29.84R
ATLANTIC CITY  CLEAR     84  61  45 SW5       29.83R
WRIGHTSTOWN    NOT AVBL
TOMS RIVER       N/A     82  63  51 W6        29.83R
BELMAR         CLEAR     82  57  42 W5        29.82R
$$

PAZ047>061-062-071-020100-
EASTERN PENNSYLVANIA

CITY           SKY/WX    TMP DP  RH WIND       PRES   REMARKS
PHILADELPHIA   PTCLDY    84  57  39 W12       29.83R
ALLENTOWN      CLEAR     78  57  48 W5        29.84R
SCRANTON       MOCLDY    68  62  81 SE5       29.87R
$$

CTZ002-004>006-009-010-012-RIZ004-006-007-MAZ004-011-015-020100-
SOUTHERN NEW ENGLAND
 IN CT

CITY           SKY/WX    TMP DP  RH WIND       PRES   REMARKS
BRADLEY INTL   PTCLDY    78  62  57 W5        29.77R
HARTFORD       CLEAR     82  61  48 W3        29.76R
DANBURY        CLEAR     73  61  65 SW3       29.82R
WTRBRY/OXFORD  PTCLDY    77  59  53 CALM      29.83R
BRIDGEPORT     CLEAR     83  57  41 W8        29.78R
MERIDEN          N/A     75  69  81 CALM      29.78R
NEW HAVEN      PTCLDY    80  59  48 VRB3      29.78R
CHESTER        FAIR      75  66  73 CALM      29.80R
GROTON         CLEAR     75  64  68 S3        29.78R
WILLIMANTIC    PTCLDY    78  63  59 CALM      29.78R

 IN RI

CITY           SKY/WX    TMP DP  RH WIND       PRES   REMARKS
PROVIDENCE     MOCLDY    78  61  55 W5        29.78R
BLOCK ISLAND     N/A     73  70  88 SW16      29.80R
WESTERLY       CLEAR     78  63  59 CALM      29.79R

 IN MA

CITY           SKY/WX    TMP DP  RH WIND       PRES   REMARKS
BOSTON         PTCLDY    79  59  50 W10       29.75R
WORCESTER      CLEAR     72  62  71 SW6       29.81R
WESTFIELD      PTCLDY    78  60  53 SW6       29.78R
PROVINCETOWN   MOCLDY    72  63  73 SW7       29.77R
NANTUCKET      CLEAR     73  70  90 SW13      29.79R
$$

ANZ330-335-338-340-345-350-353-355-020100-
COASTAL MARINE OBSERVATIONS


STATION/POSITION TIME  SKY/WX   TEMP    WIND        PRES    VSBY  WAVE
                                AIR SEA DIR/SP/G                  HT/PER
                 (UTC)          (F)     (DEG/KT/KT) (MB)    (MI)  (FT/S)
NY HARB ENTRANCE 2350            80 77  280/  8/ 10 1008.5          4/ 9
4S FIRE IS       NOT AVBL
20S FIRE ISLAND  2250            78 76  220/ 12/ 16 1008.1          4/ 9
GREAT SOUTH BAY  2300            81 81  240/ 14/ 17   N/A
23SW MTP         2350            77 74  230/ 17/ 19 1008.0          5/ 9
HUDSON CANYON    NOT AVBL
KINGS POINT      2300            81 73   10/  5/  8 1007.6
EXECUTION ROCKS  2300            81     270/  8/ 10   N/A
CENTRAL LI SOUND NOT AVBL
EASTERN LI SOUND 2300            76 69   20/  2/  4   N/A
ROBBINS REEF     2300            84     290/ 17/ 20 1007.3
$$


>>>>>>>>>>>>>>>>>>>>>>>>>>>> KEY <<<<<<<<<<<<<<<<<<<<<<<<<<<
>                                                          <
>     SKY/WX - SKY CONDITION/PRESENT WEATHER               <
>     TMP    - TEMPERATURE IN FAHRENHEIT                   <
>     DP     - DEWPOINT IN FAHRENHEIT                      <
>     RH     - RELATIVE HUMIDITY IN PERCENT                <
>     WIND   - DIRECTION AND SPEED IN MPH                  <
>     PRES   - MEAN SEA LEVEL PRESSURE IN INCHES OF HG     <
>     WCI    - WIND CHILL INDEX                            <
>     VSB    - VISIBILITY IN MILES                         <
>     HX     - HEAT INDEX                                  <
>     TC     - TEMPERATURE IN CELSIUS                      <
>     VRB    - VARIABLE WIND DIRECTION                     <
>                                                          <
>>>>>>>>>>>>>>>>>>>>>>>>>>>> KEY <<<<<<<<<<<<<<<<<<<<<<<<<<<




USA.gov is the U.S. government's official web portal to all federal, state and local government web resources and services.